Location: Cassano d�Adda
(45.5333°N, 9.5167°E)
Time: 05:55:20
(UTC+00:00)

Cosmos 1908 Rocket - Pass Details

Date: 08 December 2019
Orbit: 605 x 633 km, 82.5° (Epoch: 18 January)

Event Time Altitude Azimuth Distance (km) Brightness Sun altitude
Rises 16:47:02 0° 358° (N) 2,914 6.8 -11.6°
Reaches altitude 10° 16:49:26 10° 7° (N) 1,998 5.9 -12.0°
Maximum altitude 16:53:31 36° 75° (ENE) 986 4.1 -12.6°
Drops below altitude 10° 16:57:32 10° 142° (SE) 1,967 5.9 -13.3°
Sets 16:59:53 0° 151° (SSE) 2,862 6.9 -13.7°
